Change the Weather History Date:

Saturday, August 17, 2013

  Actual Average Record
Temperature  
Mean Temperature 78 °F 70 °F  
Max Temperature 95 °F 85 °F 95 °F (2013)
Min Temperature 61 °F 54 °F 41 °F (2009)
Degree Days  
Heating Degree Days 0 1  
Month to date heating degree days 0 7  
Since 1 June heating degree days 52 138  
Since 1 July heating degree days 0 19  
Cooling Degree Days 13 6  
Month to date cooling degree days 131 120  
Year to date cooling degree days 588 415  
Since 1 June cooling degree days 575 406  
Growing Degree Days 28 (Base 50)    
Moisture  
Dew Point 27 °F    
Average Humidity 16    
Maximum Humidity 25    
Minimum Humidity 7    
Precipitation  
Precipitation 0.00 in 0.02 in 0.40 in (2003)
Month to date precipitation 0.02 0.31  
Year to date precipitation 4.05 6.56  
Snow  
Snow 0.00 in - - ()
Month to date snowfall 0.0  
Since 1 June snowfall 0.0  
Since 1 July snowfall 0.0  
Snow Depth 0.00 in    
Sea Level Pressure  
Sea Level Pressure 29.89 in    
Wind  
Wind Speed 9 mph (NNW)    
Max Wind Speed 23 mph    
Max Gust Speed 29 mph    
Visibility 10 miles    
Events      
T = Trace of Precipitation, MM = Missing Value Source: NWS Daily Summary

Daily Weather History Graph

Daily Weather History Graph

Search for Another Location

Airport or City:

Trip Planner

Search our weather history database for the weather conditions in past years. The results will help you decide how hot, cold, wet, or windy it might be!

Date:

Astronomy

Aug. 17, 2013 Rise Set
Actual Time 6:22 AM MDT 8:12 PM MDT
Civil Twilight 5:51 AM MDT 8:43 PM MDT
Nautical Twilight 5:14 AM MDT 9:20 PM MDT
Astronomical Twilight 4:34 AM MDT 10:00 PM MDT
Moon 5:33 PM MDT (8/17) 2:25 AM MDT (8/17)
Length of Visible Light 14h 51m
Length of Day
13h 50m
Waxing Gibbous, 85% of the Moon is Illuminated
Aug 17
Waxing Gibbous
Aug 20
Full
Aug 28
Last Quarter
Sep 5
New
Sep 12
First Quarter

Hourly Weather History & Observations

Time (MDT) Temp. Dew Point Humidity Pressure Visibility Wind Dir Wind Speed Gust Speed Precip Events Conditions
12:53 AM 69.1 °F 25.0 °F 19% 29.90 in 10.0 mi NW 10.4 mph - N/A   Clear
1:53 AM 70.0 °F 24.1 °F 18% 29.89 in 10.0 mi WNW 15.0 mph - N/A   Clear
2:53 AM 68.0 °F 21.9 °F 17% 29.88 in 10.0 mi NW 15.0 mph - N/A   Clear
3:53 AM 64.0 °F 25.0 °F 23% 29.90 in 10.0 mi West 9.2 mph - N/A   Clear
4:53 AM 64.9 °F 24.1 °F 21% 29.90 in 10.0 mi NW 12.7 mph - N/A   Clear
5:53 AM 64.0 °F 26.1 °F 24% 29.91 in 10.0 mi West 8.1 mph - N/A   Clear
6:53 AM 63.0 °F 26.1 °F 25% 29.94 in 10.0 mi WNW 9.2 mph - N/A   Clear
7:53 AM 64.9 °F 26.1 °F 23% 29.96 in 10.0 mi NW 9.2 mph - N/A   Clear
8:53 AM 69.1 °F 28.0 °F 22% 29.97 in 10.0 mi NNW 10.4 mph - N/A   Clear
9:53 AM 75.9 °F 27.0 °F 16% 29.96 in 10.0 mi NW 9.2 mph - N/A   Clear
10:53 AM 80.1 °F 35.1 °F 20% 29.95 in 10.0 mi Calm Calm - N/A   Clear
11:53 AM 86.0 °F 36.0 °F 17% 29.94 in 10.0 mi Variable 3.5 mph - N/A   Clear
12:53 PM 89.1 °F 39.9 °F 18% 29.91 in 10.0 mi ESE 8.1 mph - N/A   Clear
1:53 PM 91.9 °F 26.1 °F 9% 29.88 in 10.0 mi East 12.7 mph - N/A   Clear
2:53 PM 93.9 °F 21.0 °F 7% 29.85 in 10.0 mi SSE 11.5 mph 17.3 mph N/A   Clear
3:53 PM 93.9 °F 23.0 °F 8% 29.83 in 10.0 mi ESE 8.1 mph - N/A   Clear
4:53 PM 93.9 °F 23.0 °F 8% 29.82 in 10.0 mi ESE 11.5 mph - N/A   Clear
5:53 PM 93.9 °F 24.1 °F 8% 29.81 in 10.0 mi ESE 8.1 mph - N/A   Clear
6:53 PM 91.9 °F 25.0 °F 9% 29.81 in 10.0 mi East 5.8 mph - N/A   Clear
7:53 PM 86.0 °F 23.0 °F 10% 29.83 in 10.0 mi North 4.6 mph - N/A   Clear
8:53 PM 84.0 °F 28.0 °F 13% 29.84 in 10.0 mi NW 11.5 mph - N/A   Clear
9:53 PM 81.0 °F 32.0 °F 17% 29.85 in 10.0 mi NNW 15.0 mph - N/A   Clear
10:53 PM 79.0 °F 32.0 °F 18% 29.86 in 10.0 mi NE 4.6 mph - N/A   Clear
11:53 PM 78.1 °F 30.9 °F 18% 29.86 in 10.0 mi WNW 11.5 mph - N/A   Clear